Hourly Weather Tema

Today, 26 October, Monday

Time Temperature Precipitation Wind Pressure Humidity
00:00 +28°C° 0 mm 5 mps 756 mmHg 81%
01:00 +28°C° 0 mm 5 mps 756 mmHg 82%
02:00 +28°C° 0 mm 5 mps 756 mmHg 83%
03:00 +28°C° 0 mm 5 mps 755 mmHg 84%
04:00 +28°C° 0 mm 5 mps 755 mmHg 85%
05:00 +27°C° 0 mm 5 mps 756 mmHg 85%
06:00 +27°C° 0 mm 5 mps 756 mmHg 86%
07:00 +29°C° 0 mm 5 mps 756 mmHg 79%
08:00 +30°C° 0 mm 5 mps 757 mmHg 72%
09:00 +33°C° 0 mm 5 mps 757 mmHg 65%
10:00 +34°C° 0 mm 5 mps 756 mmHg 60%
11:00 +35°C° 0 mm 5 mps 756 mmHg 56%
12:00 +35°C° 0 mm 5 mps 755 mmHg 53%
13:00 +35°C° 0.1 mm 5 mps 755 mmHg 54%
14:00 +35°C° 0.1 mm 5 mps 754 mmHg 54%
15:00 +35°C° 0.1 mm 5 mps 754 mmHg 55%
16:00 +30°C° 0.3 mm 4 mps 756 mmHg 72%
17:00 +30°C° 0.3 mm 4 mps 756 mmHg 71%
18:00 +30°C° 0.3 mm 5 mps 756 mmHg 69%
19:00 +30°C° 0.4 mm 4 mps 756 mmHg 72%
20:00 +30°C° 0.4 mm 4 mps 756 mmHg 73%
21:00 +29°C° 0.4 mm 4 mps 756 mmHg 74%
22:00 +29°C° 0 mm 5 mps 756 mmHg 81%
23:00 +28°C° 0 mm 5 mps 756 mmHg 82%

Tomorrow, 27 October, Tuesday

Time Temperature Precipitation Wind Pressure Humidity
00:00 +28°C° 0 mm 5 mps 756 mmHg 83%
01:00 +29°C° 0 mm 5 mps 755 mmHg 72%
02:00 +29°C° 0 mm 5 mps 755 mmHg 76%
03:00 +28°C° 0 mm 5 mps 754 mmHg 80%
04:00 +28°C° 0.5 mm 5 mps 755 mmHg 81%
05:00 +28°C° 0.5 mm 4 mps 755 mmHg 81%
06:00 +27°C° 0.5 mm 4 mps 756 mmHg 82%
07:00 +29°C° 0.4 mm 4 mps 756 mmHg 75%
08:00 +30°C° 0.4 mm 4 mps 756 mmHg 67%
09:00 +33°C° 0.4 mm 4 mps 756 mmHg 60%
10:00 +34°C° 0.3 mm 4 mps 756 mmHg 56%
11:00 +35°C° 0.3 mm 5 mps 755 mmHg 52%
12:00 +36°C° 0.3 mm 5 mps 755 mmHg 48%
13:00 +36°C° 0.1 mm 5 mps 754 mmHg 51%
14:00 +35°C° 0.1 mm 6 mps 754 mmHg 53%
15:00 +34°C° 0.1 mm 6 mps 754 mmHg 55%
16:00 +33°C° 0.2 mm 6 mps 754 mmHg 60%
17:00 +32°C° 0.2 mm 6 mps 755 mmHg 65%
18:00 +30°C° 0.2 mm 6 mps 755 mmHg 70%
19:00 +30°C° 0.3 mm 5 mps 756 mmHg 71%
20:00 +30°C° 0.3 mm 5 mps 756 mmHg 72%
21:00 +29°C° 0.3 mm 5 mps 757 mmHg 73%
22:00 +29°C° 0 mm 5 mps 756 mmHg 77%
23:00 +29°C° 0 mm 5 mps 756 mmHg 78%

Day after tomorrow, 28 October, Wednesday

Time Temperature Precipitation Wind Pressure Humidity
00:00 +28°C° 0 mm 5 mps 756 mmHg 80%
01:00 +28°C° 0.2 mm 5 mps 756 mmHg 81%
02:00 +28°C° 0.2 mm 6 mps 755 mmHg 82%
03:00 +28°C° 0.2 mm 6 mps 755 mmHg 83%
04:00 +28°C° 0 mm 5 mps 755 mmHg 84%
05:00 +27°C° 0 mm 5 mps 756 mmHg 85%
06:00 +27°C° 0 mm 5 mps 756 mmHg 86%
07:00 +29°C° 0 mm 5 mps 756 mmHg 79%
08:00 +30°C° 0 mm 5 mps 757 mmHg 72%
09:00 +32°C° 0 mm 4 mps 757 mmHg 65%
10:00 +34°C° 0.1 mm 4 mps 757 mmHg 60%
11:00 +35°C° 0.1 mm 4 mps 756 mmHg 54%
12:00 +36°C° 0.1 mm 5 mps 756 mmHg 49%
13:00 +36°C° 0.3 mm 5 mps 755 mmHg 50%
14:00 +35°C° 0.3 mm 6 mps 755 mmHg 51%
15:00 +35°C° 0.3 mm 6 mps 754 mmHg 53%
16:00 +34°C° 0.6 mm 6 mps 755 mmHg 59%
17:00 +32°C° 0.6 mm 6 mps 755 mmHg 65%
18:00 +30°C° 0.6 mm 6 mps 756 mmHg 71%
19:00 +30°C° 0.2 mm 6 mps 756 mmHg 73%
20:00 +29°C° 0.2 mm 6 mps 756 mmHg 75%
21:00 +29°C° 0.2 mm 5 mps 757 mmHg 77%
22:00 +29°C° 0.4 mm 5 mps 757 mmHg 78%
23:00 +28°C° 0.4 mm 5 mps 757 mmHg 79%

29 October, Thursday

Time Temperature Precipitation Wind Pressure Humidity
00:00 +28°C° 0.4 mm 5 mps 757 mmHg 80%
01:00 +28°C° 0.8 mm 5 mps 756 mmHg 81%
02:00 +28°C° 0.8 mm 6 mps 756 mmHg 82%
03:00 +28°C° 0.8 mm 6 mps 755 mmHg 82%
04:00 +27°C° 0 mm 6 mps 756 mmHg 84%
05:00 +27°C° 0 mm 5 mps 756 mmHg 86%
06:00 +27°C° 0 mm 5 mps 756 mmHg 87%
07:00 +28°C° 0.1 mm 5 mps 757 mmHg 80%
08:00 +30°C° 0.1 mm 5 mps 757 mmHg 72%
09:00 +32°C° 0.1 mm 4 mps 757 mmHg 65%
10:00 +33°C° 0 mm 4 mps 757 mmHg 60%
11:00 +35°C° 0 mm 5 mps 757 mmHg 54%
12:00 +36°C° 0 mm 5 mps 756 mmHg 49%
13:00 +35°C° 0 mm 5 mps 756 mmHg 51%
14:00 +35°C° 0 mm 5 mps 755 mmHg 52%
15:00 +35°C° 0 mm 5 mps 755 mmHg 54%
16:00 +34°C° 0 mm 5 mps 755 mmHg 58%
17:00 +32°C° 0 mm 5 mps 755 mmHg 62%
18:00 +30°C° 0 mm 5 mps 756 mmHg 66%
19:00 +30°C° 0 mm 5 mps 756 mmHg 69%
20:00 +30°C° 0 mm 5 mps 757 mmHg 73%
21:00 +29°C° 0 mm 5 mps 757 mmHg 76%
22:00 +29°C° 0.2 mm 5 mps 757 mmHg 77%
23:00 +29°C° 0.2 mm 5 mps 757 mmHg 78%

30 October, Friday

Time Temperature Precipitation Wind Pressure Humidity
00:00 +28°C° 0.2 mm 5 mps 757 mmHg 80%
01:00 +28°C° 0.2 mm 5 mps 757 mmHg 81%
02:00 +28°C° 0.2 mm 5 mps 756 mmHg 82%
03:00 +28°C° 0.2 mm 4 mps 756 mmHg 83%
04:00 +28°C° 0 mm 4 mps 756 mmHg 84%
05:00 +27°C° 0 mm 4 mps 756 mmHg 85%
06:00 +27°C° 0 mm 4 mps 757 mmHg 86%
07:00 +29°C° 0 mm 4 mps 757 mmHg 79%
08:00 +30°C° 0 mm 4 mps 758 mmHg 72%
09:00 +31°C° 0 mm 3 mps 758 mmHg 65%
10:00 +34°C° 0 mm 4 mps 758 mmHg 60%
11:00 +35°C° 0 mm 4 mps 757 mmHg 54%
12:00 +36°C° 0 mm 4 mps 757 mmHg 49%
13:00 +35°C° 0 mm 4 mps 756 mmHg 51%
14:00 +35°C° 0 mm 5 mps 755 mmHg 54%
15:00 +34°C° 0 mm 5 mps 755 mmHg 56%
16:00 +33°C° 0 mm 5 mps 755 mmHg 60%
17:00 +32°C° 0 mm 5 mps 755 mmHg 65%
18:00 +30°C° 0 mm 5 mps 756 mmHg 70%
19:00 +30°C° 0 mm 5 mps 756 mmHg 71%
20:00 +30°C° 0 mm 5 mps 757 mmHg 73%
21:00 +29°C° 0 mm 4 mps 757 mmHg 75%
22:00 +29°C° 0 mm 4 mps 757 mmHg 77%
23:00 +29°C° 0 mm 5 mps 757 mmHg 78%

31 October, Saturday

Time Temperature Precipitation Wind Pressure Humidity
00:00 +29°C° 0 mm 5 mps 757 mmHg 79%
01:00 +28°C° 0 mm 5 mps 757 mmHg 80%
02:00 +28°C° 0 mm 5 mps 756 mmHg 82%
03:00 +28°C° 0 mm 5 mps 756 mmHg 83%
04:00 +28°C° 0 mm 4 mps 756 mmHg 84%
05:00 +27°C° 0 mm 4 mps 756 mmHg 85%
06:00 +27°C° 0 mm 4 mps 756 mmHg 86%
Show more

We Need Your Consent

Meteoprog and our Service Providers may store and access personal data such as cookies, device identifiers or other similar technologies on your device and process such data to personalise content and ads, as well as provide social media features and to analyse the traffic.

  • Store and/or access information on your device

    Cookies, device identifiers or other information can be stored or accessed on your device for the purposes indicated above.

  • Personalised ads and content, ad and content measurement, audience insights, and products development

    Ads and content can be personalised based on a profile. More data can be added to better personalise ads and content. Ad and content performance can be measured. Insights about the audience who saw the ads and content can be derived. Such data can be used to develop or improve user’s experience, systems and software.

By clicking ‘I Agree’ you will allow the use of indicated cookies, device identifiers, web beacons or other similar technologies. Your settings can be changed in the browser on your device.

For certain purposes, legitimate interests may be relied on, rather than consent. You can read more about this in our Privacy and Cookie Policy.